TimeMDT,TemperatureF,Dew PointF,Humidity,Sea Level PressureIn,VisibilityMPH,Wind Direction,Wind SpeedMPH,Gust SpeedMPH,PrecipitationIn,Events,Conditions,WindDirDegrees,DateUTC
12:12 AM,53.6,42.8,67,30.57,10.0,West,6.9,-,N/A,,Mostly Cloudy,270,2013-07-07 06:12:00
12:32 AM,53.6,42.8,67,30.57,10.0,South,11.5,-,N/A,,Mostly Cloudy,180,2013-07-07 06:32:00
12:52 AM,53.6,41.0,62,30.58,10.0,SSW,11.5,16.1,N/A,,Scattered Clouds,200,2013-07-07 06:52:00
1:12 AM,53.6,41.0,62,30.57,10.0,SSW,8.1,-,N/A,Thunderstorm,Clear,200,2013-07-07 07:12:00
1:32 AM,53.6,41.0,62,30.58,10.0,SW,4.6,-,N/A,,Clear,220,2013-07-07 07:32:00
1:52 AM,53.6,42.8,67,30.57,10.0,South,10.4,16.1,N/A,,Mostly Cloudy,170,2013-07-07 07:52:00
2:12 AM,51.8,41.0,67,30.57,7.0,SSW,11.5,21.9,0.01,Rain,Light Rain,200,2013-07-07 08:12:00
2:32 AM,53.6,42.8,67,30.56,10.0,South,19.6,-,0.01,,Overcast,180,2013-07-07 08:32:00
2:52 AM,53.6,42.8,67,30.56,10.0,South,17.3,-,0.01,,Overcast,180,2013-07-07 08:52:00
3:12 AM,53.6,42.8,67,30.57,10.0,South,17.3,23.0,N/A,,Overcast,180,2013-07-07 09:12:00
3:32 AM,53.6,41.0,62,30.57,10.0,South,13.8,24.2,N/A,,Mostly Cloudy,190,2013-07-07 09:32:00
3:52 AM,51.8,41.0,67,30.57,10.0,South,17.3,21.9,N/A,,Clear,180,2013-07-07 09:52:00
4:12 AM,51.8,41.0,67,30.57,10.0,South,17.3,-,N/A,,Clear,180,2013-07-07 10:12:00
4:32 AM,51.8,41.0,67,30.57,10.0,South,15.0,-,N/A,,Clear,180,2013-07-07 10:32:00
4:52 AM,51.8,41.0,67,30.58,10.0,South,13.8,-,N/A,,Clear,190,2013-07-07 10:52:00
5:12 AM,51.8,37.4,58,30.58,10.0,SSW,8.1,-,N/A,,Clear,210,2013-07-07 11:12:00
5:32 AM,53.6,39.2,58,30.59,10.0,SW,3.5,-,N/A,,Clear,220,2013-07-07 11:32:00
5:52 AM,51.8,37.4,58,30.59,10.0,West,10.4,-,N/A,,Clear,260,2013-07-07 11:52:00
6:12 AM,51.8,37.4,58,30.59,10.0,West,12.7,16.1,N/A,,Scattered Clouds,260,2013-07-07 12:12:00
6:32 AM,50.0,37.4,62,30.60,10.0,West,12.7,16.1,N/A,,Scattered Clouds,260,2013-07-07 12:32:00
6:52 AM,51.8,39.2,62,30.60,10.0,WSW,5.8,-,N/A,,Scattered Clouds,250,2013-07-07 12:52:00
7:12 AM,51.8,39.2,62,30.60,10.0,WSW,4.6,-,N/A,,Scattered Clouds,240,2013-07-07 13:12:00
7:32 AM,51.8,39.2,62,30.61,10.0,WSW,4.6,-,N/A,,Mostly Cloudy,250,2013-07-07 13:32:00
7:52 AM,53.6,39.2,58,30.62,10.0,WSW,5.8,-,N/A,,Overcast,250,2013-07-07 13:52:00
8:12 AM,53.6,41.0,62,30.62,10.0,SW,3.5,-,N/A,,Mostly Cloudy,230,2013-07-07 14:12:00
8:32 AM,53.6,37.4,54,30.62,10.0,West,12.7,-,N/A,,Scattered Clouds,270,2013-07-07 14:32:00
8:52 AM,53.6,37.4,54,30.64,10.0,West,13.8,-,N/A,,Clear,260,2013-07-07 14:52:00
9:12 AM,53.6,37.4,54,30.64,10.0,West,10.4,24.2,N/A,,Scattered Clouds,280,2013-07-07 15:12:00
9:32 AM,55.4,37.4,51,30.64,10.0,West,17.3,-,N/A,,Scattered Clouds,270,2013-07-07 15:32:00
9:52 AM,55.4,37.4,51,30.63,10.0,West,18.4,23.0,N/A,,Scattered Clouds,280,2013-07-07 15:52:00
10:12 AM,59.0,37.4,45,30.63,10.0,West,17.3,24.2,N/A,,Scattered Clouds,280,2013-07-07 16:12:00
10:32 AM,59.0,37.4,45,30.64,10.0,West,12.7,24.2,N/A,,Scattered Clouds,270,2013-07-07 16:32:00
10:52 AM,59.0,35.6,42,30.64,10.0,West,19.6,23.0,N/A,,Scattered Clouds,280,2013-07-07 16:52:00
11:12 AM,60.8,35.6,39,30.63,10.0,WNW,21.9,28.8,N/A,,Scattered Clouds,290,2013-07-07 17:12:00
11:32 AM,60.8,35.6,39,30.64,10.0,West,19.6,26.5,N/A,,Scattered Clouds,270,2013-07-07 17:32:00
11:52 AM,60.8,35.6,39,30.64,10.0,West,21.9,29.9,N/A,,Mostly Cloudy,280,2013-07-07 17:52:00
12:12 PM,60.8,35.6,39,30.64,10.0,WNW,18.4,26.5,N/A,,Mostly Cloudy,290,2013-07-07 18:12:00
12:32 PM,60.8,35.6,39,30.65,10.0,West,11.5,18.4,N/A,,Overcast,270,2013-07-07 18:32:00
12:52 PM,59.0,33.8,39,30.65,10.0,West,15.0,19.6,N/A,,Overcast,270,2013-07-07 18:52:00
1:12 PM,60.8,33.8,36,30.64,10.0,West,17.3,23.0,N/A,,Mostly Cloudy,280,2013-07-07 19:12:00
1:32 PM,64.4,32.0,30,30.64,10.0,WNW,16.1,26.5,N/A,,Scattered Clouds,290,2013-07-07 19:32:00
1:52 PM,64.4,32.0,30,30.64,10.0,West,12.7,26.5,N/A,,Scattered Clouds,270,2013-07-07 19:52:00
2:12 PM,64.4,32.0,30,30.63,10.0,West,18.4,27.6,N/A,Thunderstorm,Scattered Clouds,270,2013-07-07 20:12:00
2:32 PM,62.6,33.8,34,30.63,10.0,West,11.5,18.4,N/A,,Scattered Clouds,270,2013-07-07 20:32:00
2:52 PM,64.4,32.0,30,30.62,10.0,West,10.4,19.6,N/A,,Scattered Clouds,280,2013-07-07 20:52:00
3:12 PM,68.0,32.0,26,30.62,10.0,West,12.7,24.2,N/A,,Scattered Clouds,280,2013-07-07 21:12:00
3:32 PM,64.4,32.0,30,30.62,10.0,West,19.6,-,N/A,,Scattered Clouds,280,2013-07-07 21:32:00
3:52 PM,64.4,32.0,30,30.61,10.0,WSW,3.5,-,N/A,,Scattered Clouds,240,2013-07-07 21:52:00
4:12 PM,64.4,30.2,28,30.60,10.0,WSW,5.8,-,N/A,,Mostly Cloudy,240,2013-07-07 22:12:00
4:32 PM,64.4,28.4,26,30.59,10.0,WSW,4.6,-,N/A,,Scattered Clouds,250,2013-07-07 22:32:00
4:52 PM,64.4,32.0,30,30.59,10.0,West,5.8,-,N/A,,Mostly Cloudy,270,2013-07-07 22:52:00
5:12 PM,64.4,33.8,32,30.59,10.0,ENE,9.2,-,N/A,,Mostly Cloudy,70,2013-07-07 23:12:00
5:32 PM,64.4,37.4,37,30.59,10.0,NNW,4.6,-,N/A,,Overcast,330,2013-07-07 23:32:00
5:52 PM,64.4,37.4,37,30.59,10.0,North,3.5,-,N/A,,Mostly Cloudy,350,2013-07-07 23:52:00
6:12 PM,64.4,35.6,34,30.59,10.0,WNW,5.8,-,N/A,,Mostly Cloudy,300,2013-07-08 00:12:00
6:32 PM,64.4,37.4,37,30.58,10.0,NW,4.6,-,N/A,Thunderstorm,Overcast,310,2013-07-08 00:32:00
6:52 PM,60.8,35.6,39,30.59,10.0,NNE,5.8,17.3,N/A,,Overcast,20,2013-07-08 00:52:00
7:12 PM,59.0,39.2,48,30.58,10.0,ENE,15.0,24.2,N/A,Thunderstorm,Thunderstorm,60,2013-07-08 01:12:00
7:32 PM,59.0,42.8,55,30.59,10.0,SSE,15.0,-,0.01,Rain-Thunderstorm,Light Thunderstorms and Rain,160,2013-07-08 01:32:00
7:52 PM,53.6,41.0,62,30.60,10.0,SSE,8.1,17.3,0.05,Rain-Thunderstorm,Light Thunderstorms and Rain,160,2013-07-08 01:52:00
8:12 PM,53.6,42.8,67,30.62,7.0,South,23.0,-,0.02,Rain-Thunderstorm,Thunderstorms and Rain,180,2013-07-08 02:12:00
8:32 PM,53.6,44.6,72,30.62,5.0,South,19.6,-,0.05,Rain-Thunderstorm,Light Thunderstorms and Rain,170,2013-07-08 02:32:00
8:52 PM,53.6,42.8,67,30.62,10.0,South,16.1,-,0.06,Thunderstorm,Overcast,170,2013-07-08 02:52:00
9:12 PM,53.6,41.0,62,30.62,10.0,South,18.4,-,N/A,,Scattered Clouds,170,2013-07-08 03:12:00
9:32 PM,53.6,41.0,62,30.63,10.0,South,18.4,-,N/A,Thunderstorm,Scattered Clouds,170,2013-07-08 03:32:00
9:52 PM,53.6,41.0,62,30.64,10.0,South,16.1,-,N/A,,Scattered Clouds,170,2013-07-08 03:52:00
10:12 PM,53.6,41.0,62,30.63,10.0,SSE,13.8,-,N/A,,Scattered Clouds,160,2013-07-08 04:12:00
10:32 PM,53.6,41.0,62,30.64,10.0,South,12.7,-,N/A,,Scattered Clouds,170,2013-07-08 04:32:00
10:52 PM,53.6,37.4,54,30.64,10.0,South,6.9,-,N/A,,Scattered Clouds,170,2013-07-08 04:52:00
11:12 PM,53.6,37.4,54,30.64,10.0,South,6.9,-,N/A,,Scattered Clouds,180,2013-07-08 05:12:00
11:32 PM,53.6,37.4,54,30.64,10.0,West,4.6,-,N/A,,Mostly Cloudy,270,2013-07-08 05:32:00
11:52 PM,53.6,37.4,54,30.64,10.0,West,5.8,-,N/A,,Overcast,260,2013-07-08 05:52:00